Weather in Lerici

Italy     44°04′33″N   9°54′35″E
temp.,
°C
wind,
m/s
gust,
m/s
humid.,
%
clouds,
%
prec.,
mm/h
press.,
hPa
HPBL,
m
21 april, wed
wed2123:00+12nw117411 0.0 1017299
02:00+12ne117458 0.1 1018389
05:00+12se2272100 0.0 1018491
08:00+12ese2374100 0.0 1018300
11:00+13sse3467100 0.0 1019605
14:00+13s4468100 0.0 1019621
17:00+14sse3467100 0.0 1018646
20:00+13se336994 0.0 1018632
22 april, thu
thu2223:00+13ese3372100 0.0 1019463
02:00+12ene227399 0.0 1019203
05:00+12ene226899 0.0 1018210
08:00+12nne1167100 0.0 1019208
11:00+13wsw21623 0.0 1019434
14:00+14w326210 0.0 1018577
17:00+14wnw33655 0.1 1017373
20:00+14nnw22695 0.1 1017126
23 april, fri
fri2323:00+13wnw11715 0.0 101952
02:00+13nne11735 0.0 101960
05:00+13ne21710 0.0 101889
08:00+13ene11650 0.0 1019101
11:00+15sw21600 0.0 1020387
14:00+16w226246 0.0 1019367
17:00+16nw336155 0.0 1018314
20:00+16nnw33672 0.0 101850
24 april, sat
sat2423:00+14ne44700 0.0 102069
02:00+13ne44690 0.0 102097
05:00+13nne44650 0.0 1020112
08:00+13ne33610 0.0 1021126
11:00+17w22530 0.0 1021349
14:00+16w33590 0.0 1020353
17:00+16nw11570 0.0 1019216
20:00+16nnw22590 0.0 101922
25 april, sun
sun2523:00+15n336719 0.0 102041
02:00+15ene2268100 0.0 101928
05:00+14e116999 0.0 101932
08:00+14sse11679 0.0 101974
11:00+15ssw2163100 0.0 1020275
14:00+16wsw115940 0.0 1019317
17:00+16wnw116082 0.0 1019254
20:00+15nnw1164100 0.0 101840